• In Russia
  • List of Countries
  • For 7 days
  • Water Temperature
  • Satellite Maps
  • Weather Map
  • Weather Widgets
  • user-avatar
    Login

    Hourly Weather Bregenz

    Today, 22 June, Thursday

    Time Temperature Precipitation Wind Pressure Humidity
    00:00 +13°C° 0 mm 1 mps 648 mmHg 87%
    01:00 +13°C° 0 mm 2 mps 649 mmHg 86%
    02:00 +13°C° 0 mm 2 mps 649 mmHg 85%
    03:00 +13°C° 0 mm 2 mps 648 mmHg 84%
    04:00 +13°C° 0 mm 2 mps 648 mmHg 83%
    05:00 +14°C° 0 mm 2 mps 649 mmHg 80%
    06:00 +16°C° 0 mm 1 mps 650 mmHg 77%
    07:00 +20°C° 0 mm 1 mps 650 mmHg 71%
    08:00 +22°C° 0 mm 1 mps 651 mmHg 63%
    09:00 +24°C° 0 mm 1 mps 651 mmHg 55%
    10:00 +26°C° 0 mm 1 mps 652 mmHg 47%
    11:00 +26°C° 0 mm 1 mps 652 mmHg 43%
    12:00 +27°C° 0 mm 1 mps 652 mmHg 40%
    13:00 +28°C° 0 mm 2 mps 652 mmHg 37%
    14:00 +27°C° 0.1 mm 2 mps 652 mmHg 40%
    15:00 +27°C° 0.1 mm 2 mps 652 mmHg 43%
    16:00 +26°C° 0.1 mm 2 mps 651 mmHg 46%
    17:00 +25°C° 0.4 mm 2 mps 651 mmHg 58%
    18:00 +23°C° 0.4 mm 2 mps 651 mmHg 70%
    19:00 +20°C° 0.4 mm 2 mps 650 mmHg 82%
    20:00 +18°C° 0.2 mm 2 mps 650 mmHg 84%
    21:00 +16°C° 0.2 mm 2 mps 649 mmHg 87%
    22:00 +14°C° 0.2 mm 2 mps 649 mmHg 90%
    23:00 +14°C° 0.1 mm 2 mps 649 mmHg 88%

    Tomorrow, 23 June, Friday

    Time Temperature Precipitation Wind Pressure Humidity
    00:00 +14°C° 0.1 mm 2 mps 649 mmHg 87%
    01:00 +14°C° 0.1 mm 2 mps 649 mmHg 85%
    02:00 +13°C° 0 mm 2 mps 649 mmHg 84%
    03:00 +13°C° 0 mm 2 mps 649 mmHg 83%
    04:00 +13°C° 0 mm 2 mps 649 mmHg 82%
    05:00 +14°C° 0 mm 2 mps 649 mmHg 78%
    06:00 +16°C° 0 mm 2 mps 650 mmHg 74%
    07:00 +17°C° 0 mm 2 mps 650 mmHg 71%
    08:00 +19°C° 0 mm 2 mps 651 mmHg 62%
    09:00 +21°C° 0 mm 3 mps 651 mmHg 53%
    10:00 +24°C° 0 mm 3 mps 652 mmHg 44%
    11:00 +25°C° 0.1 mm 4 mps 652 mmHg 45%
    12:00 +25°C° 0.1 mm 4 mps 652 mmHg 45%
    13:00 +26°C° 0.1 mm 4 mps 652 mmHg 46%
    14:00 +25°C° 0.1 mm 4 mps 652 mmHg 51%
    15:00 +23°C° 0.1 mm 4 mps 652 mmHg 55%
    16:00 +24°C° 0.1 mm 3 mps 651 mmHg 60%
    17:00 +21°C° 0.2 mm 3 mps 651 mmHg 68%
    18:00 +20°C° 0.2 mm 2 mps 651 mmHg 76%
    19:00 +19°C° 0.2 mm 2 mps 651 mmHg 84%
    20:00 +16°C° 0 mm 2 mps 650 mmHg 88%
    21:00 +14°C° 0 mm 1 mps 650 mmHg 92%
    22:00 +12°C° 0 mm 1 mps 650 mmHg 95%
    23:00 +12°C° 0 mm 1 mps 650 mmHg 95%

    Day after tomorrow, 24 June, Saturday

    Time Temperature Precipitation Wind Pressure Humidity
    00:00 +12°C° 0 mm 1 mps 649 mmHg 95%
    01:00 +11°C° 0 mm 1 mps 649 mmHg 95%
    02:00 +11°C° 0 mm 1 mps 649 mmHg 94%
    03:00 +11°C° 0 mm 1 mps 649 mmHg 92%
    04:00 +11°C° 0 mm 1 mps 648 mmHg 91%
    05:00 +13°C° 0 mm 1 mps 649 mmHg 86%
    06:00 +15°C° 0 mm 1 mps 649 mmHg 82%
    07:00 +18°C° 0 mm 1 mps 650 mmHg 77%
    08:00 +19°C° 0.1 mm 1 mps 650 mmHg 71%
    09:00 +20°C° 0.1 mm 2 mps 651 mmHg 65%
    10:00 +21°C° 0.1 mm 2 mps 651 mmHg 59%
    11:00 +23°C° 0.3 mm 2 mps 651 mmHg 60%
    12:00 +22°C° 0.3 mm 3 mps 650 mmHg 61%
    13:00 +22°C° 0.3 mm 3 mps 650 mmHg 62%
    14:00 +22°C° 1 mm 3 mps 650 mmHg 67%
    15:00 +21°C° 1 mm 3 mps 650 mmHg 73%
    16:00 +20°C° 1 mm 3 mps 649 mmHg 79%
    17:00 +19°C° 1.9 mm 2 mps 649 mmHg 83%
    18:00 +18°C° 1.9 mm 2 mps 649 mmHg 87%
    19:00 +18°C° 1.9 mm 1 mps 648 mmHg 91%
    20:00 +16°C° 1.1 mm 1 mps 648 mmHg 92%
    21:00 +14°C° 1.1 mm 1 mps 648 mmHg 94%
    22:00 +13°C° 1.1 mm 1 mps 648 mmHg 95%
    23:00 +12°C° 0.6 mm 1 mps 647 mmHg 96%

    25 June, Sunday

    Time Temperature Precipitation Wind Pressure Humidity
    00:00 +12°C° 0.6 mm 1 mps 647 mmHg 96%
    01:00 +11°C° 0.6 mm 1 mps 647 mmHg 96%
    02:00 +11°C° 0.3 mm 1 mps 646 mmHg 96%
    03:00 +10°C° 0.3 mm 1 mps 646 mmHg 97%
    04:00 +10°C° 0.3 mm 1 mps 646 mmHg 97%
    05:00 +11°C° 0.1 mm 1 mps 647 mmHg 96%
    06:00 +12°C° 0.1 mm 1 mps 647 mmHg 96%
    07:00 +13°C° 0.1 mm 1 mps 647 mmHg 95%
    08:00 +14°C° 0.1 mm 2 mps 648 mmHg 89%
    09:00 +15°C° 0.1 mm 2 mps 648 mmHg 83%
    10:00 +17°C° 0.1 mm 2 mps 648 mmHg 77%
    11:00 +17°C° 0.1 mm 3 mps 648 mmHg 71%
    12:00 +18°C° 0.1 mm 3 mps 649 mmHg 66%
    13:00 +19°C° 0.1 mm 3 mps 649 mmHg 60%
    14:00 +19°C° 0.1 mm 3 mps 649 mmHg 62%
    15:00 +19°C° 0.1 mm 3 mps 649 mmHg 63%
    16:00 +18°C° 0.1 mm 3 mps 649 mmHg 65%
    17:00 +17°C° 0.1 mm 3 mps 648 mmHg 71%
    18:00 +17°C° 0.1 mm 2 mps 648 mmHg 76%
    19:00 +16°C° 0.1 mm 2 mps 648 mmHg 82%
    20:00 +14°C° 0 mm 1 mps 648 mmHg 87%
    21:00 +12°C° 0 mm 1 mps 648 mmHg 92%
    22:00 +10°C° 0 mm 1 mps 647 mmHg 96%
    23:00 +8°C° 0 mm 0 mps 647 mmHg 97%

    26 June, Monday

    Time Temperature Precipitation Wind Pressure Humidity
    00:00 +7°C° 0 mm 0 mps 647 mmHg 97%
    01:00 +6°C° 0 mm 0 mps 646 mmHg 97%
    02:00 +6°C° 0 mm 0 mps 646 mmHg 97%
    03:00 +6°C° 0 mm 0 mps 646 mmHg 96%
    04:00 +7°C° 0 mm 1 mps 646 mmHg 96%
    05:00 +10°C° 0 mm 1 mps 647 mmHg 91%
    06:00 +12°C° 0 mm 1 mps 647 mmHg 85%
    07:00 +14°C° 0 mm 1 mps 648 mmHg 80%
    08:00 +18°C° 0 mm 1 mps 648 mmHg 71%
    09:00 +20°C° 0 mm 1 mps 649 mmHg 61%
    10:00 +22°C° 0 mm 1 mps 649 mmHg 52%
    11:00 +23°C° 0 mm 1 mps 649 mmHg 49%
    12:00 +24°C° 0 mm 2 mps 649 mmHg 47%
    13:00 +25°C° 0 mm 2 mps 649 mmHg 44%
    14:00 +25°C° 0.1 mm 2 mps 648 mmHg 47%
    15:00 +24°C° 0.1 mm 2 mps 648 mmHg 51%
    16:00 +24°C° 0.1 mm 2 mps 647 mmHg 54%
    17:00 +23°C° 0.2 mm 2 mps 647 mmHg 63%
    18:00 +22°C° 0.2 mm 1 mps 646 mmHg 73%
    19:00 +20°C° 0.2 mm 1 mps 646 mmHg 82%
    20:00 +19°C° 0.3 mm 1 mps 646 mmHg 85%
    21:00 +16°C° 0.3 mm 1 mps 645 mmHg 87%
    22:00 +14°C° 0.3 mm 2 mps 645 mmHg 90%
    23:00 +14°C° 0.5 mm 2 mps 644 mmHg 90%

    27 June, Tuesday

    Time Temperature Precipitation Wind Pressure Humidity
    00:00 +14°C° 0.5 mm 2 mps 644 mmHg 90%
    01:00 +13°C° 0.5 mm 3 mps 644 mmHg 90%
    02:00 +13°C° 0.6 mm 2 mps 644 mmHg 91%
    03:00 +13°C° 0.6 mm 2 mps 644 mmHg 92%
    04:00 +12°C° 0.6 mm 2 mps 643 mmHg 92%
    05:00 +13°C° 0.4 mm 2 mps 644 mmHg 90%
    06:00 +14°C° 0.4 mm 2 mps 644 mmHg 88%
    07:00 +16°C° 0.4 mm 1 mps 644 mmHg 85%
    08:00 +18°C° 0.3 mm 1 mps 645 mmHg 78%
    09:00 +20°C° 0.3 mm 1 mps 645 mmHg 71%
    10:00 +21°C° 0.3 mm 1 mps 645 mmHg 63%
    11:00 +20°C° 0.7 mm 2 mps 645 mmHg 67%
    12:00 +20°C° 0.7 mm 2 mps 645 mmHg 70%
    13:00 +20°C° 0.7 mm 3 mps 645 mmHg 74%
    14:00 +19°C° 1.7 mm 2 mps 645 mmHg 79%
    15:00 +18°C° 1.7 mm 2 mps 644 mmHg 84%
    16:00 +17°C° 1.7 mm 2 mps 644 mmHg 89%
    17:00 +18°C° 0.7 mm 1 mps 644 mmHg 90%
    18:00 +18°C° 0.7 mm 1 mps 643 mmHg 90%
    19:00 +18°C° 0.7 mm 1 mps 643 mmHg 90%
    20:00 +15°C° 0.2 mm 1 mps 643 mmHg 91%
    21:00 +14°C° 0.2 mm 1 mps 642 mmHg 92%
    22:00 +12°C° 0.2 mm 2 mps 642 mmHg 93%
    23:00 +12°C° 0.2 mm 2 mps 641 mmHg 93%
    Show more